Weather History for LLBG - January, 2013

Change the Weather History Date:

Saturday, January 12, 2013

  Actual Average Record
Temperature  
Mean Temperature 50 °F -  
Max Temperature 61 °F 61 °F 84 °F (1997)
Min Temperature 40 °F 47 °F 35 °F (1998)
Degree Days  
Heating Degree Days 14    
Moisture  
Dew Point 35 °F    
Average Humidity 56    
Maximum Humidity 81    
Minimum Humidity 22    
Precipitation  
Precipitation 0.00 in - - ()
Sea Level Pressure  
Sea Level Pressure 30.24 in    
Wind  
Wind Speed 3 mph ()    
Max Wind Speed 14 mph    
Max Gust Speed -    
Visibility 6.0 miles    
Events      
Averages and records for this station are not official NWS values.
T = Trace of Precipitation, MM = Missing Value Source: Averaged Metar Reports

Daily Weather History Graph

Daily Weather History Graph

Search for Another Location

Airport or City:

Trip Planner

Search our weather history database for the weather conditions in past years. The results will help you decide how hot, cold, wet, or windy it might be!

Date:

Astronomy

Jan. 12, 2013 Rise Set
Actual Time 6:41 AM IST 4:56 PM IST
Civil Twilight 6:15 AM IST 5:22 PM IST
Nautical Twilight 5:45 AM IST 5:52 PM IST
Astronomical Twilight 5:15 AM IST 6:22 PM IST
Moon 6:50 AM IST (1/12) 5:54 PM IST (1/12)
Length of Visible Light 11h 07m
Length of Day
10h 14m
New Moon, 1% of the Moon is Illuminated
Jan 12
New Moon
Jan 19
First Quarter
Jan 27
Full
Feb 3
Last Quarter
Feb 10
New

Hourly Weather History & Observations

Time (IST) Temp. Windchill Dew Point Humidity Pressure Visibility Wind Dir Wind Speed Gust Speed Precip Events Conditions
12:50 AM 42.8 °F - 37.4 °F 81% 30.30 in - Calm Calm - N/A   Clear
1:50 AM 42.8 °F - 37.4 °F 81% 30.27 in - Variable 1.2 mph - N/A   Clear
2:00 AM 42 °F - 37 °F 76% 30.30 in 6 mi 1.2 mph - -  
2:50 AM 42.8 °F - 35.6 °F 76% 30.27 in - Variable 1.2 mph - N/A   Clear
3:50 AM 42.8 °F - 35.6 °F 76% 30.27 in - Variable 2.3 mph - N/A   Clear
4:50 AM 41.0 °F - 35.6 °F 81% 30.24 in - Variable 1.2 mph - N/A   Clear
5:50 AM 46.4 °F - 33.8 °F 62% 30.24 in - Calm Calm - N/A   Clear
6:50 AM 44.6 °F - 33.8 °F 66% 30.27 in - Variable 2.3 mph - N/A   Clear
7:50 AM 46.4 °F - 33.8 °F 62% 30.27 in - Variable 1.2 mph - N/A   Clear
8:00 AM 47 °F - 34 °F 50% 30.28 in 6 mi 1.2 mph - -   Clear
8:50 AM 51.8 °F - 37.4 °F 58% 30.27 in - Variable 2.3 mph - N/A   Clear
9:50 AM 57.2 °F - 30.2 °F 36% 30.27 in - ESE 8.1 mph - N/A   Clear
10:50 AM 57.2 °F - 30.2 °F 36% 30.24 in - SE 6.9 mph - N/A   Clear
11:50 AM 59.0 °F - 30.2 °F 34% 30.21 in - ESE 9.2 mph - N/A   Clear
12:50 PM 60.8 °F - 30.2 °F 31% 30.21 in - SE 11.5 mph - N/A   Clear
1:50 PM 60.8 °F - 32.0 °F 34% 30.18 in - ESE 13.8 mph - N/A   Clear
2:00 PM 61 °F - 32 °F 22% 30.21 in 6 mi ESE 13.8 mph - -   Clear
2:50 PM 59.0 °F - 32.0 °F 36% 30.21 in - ESE 8.1 mph - N/A   Clear
3:50 PM 59.0 °F - 32.0 °F 36% 30.21 in - East 11.5 mph - N/A   Clear
4:50 PM 57.2 °F - 33.8 °F 41% 30.21 in - ESE 5.8 mph - N/A   Clear
5:50 PM 55.4 °F - 33.8 °F 44% 30.21 in - SE 2.3 mph - N/A   Clear
6:50 PM 51.8 °F - 37.4 °F 58% 30.21 in - North 3.5 mph - N/A   Clear
7:50 PM 50.0 °F - 37.4 °F 62% 30.21 in - Calm Calm - N/A   Clear
8:00 PM 50 °F - 37 °F 51% 30.23 in 6 mi Calm Calm - -   Clear
8:50 PM 48.2 °F - 37.4 °F 66% 30.21 in - ENE 3.5 mph - N/A   Clear
9:50 PM 46.4 °F 45.2 °F 37.4 °F 71% 30.21 in - NE 3.5 mph - N/A   Clear
10:50 PM 44.6 °F 43.1 °F 37.4 °F 76% 30.21 in - ENE 3.5 mph - N/A   Clear
11:50 PM 44.6 °F 43.1 °F 37.4 °F 76% 30.18 in - NE 3.5 mph - N/A   Clear